| time (UTC) | temp C | wind direction | speed KPH | gust KPH | rain 1hr cm | rain 24hr cm | rain mn cm | humidity % | barometer mb |
| 20260506180339 | 16 | 302 | 8.0 | 12.9 | 0.00 | 0.00 | 0.00 | 79 | 1015.6 |
| 20260506175835 | 16 | 326 | 6.4 | 14.5 | 0.00 | 0.00 | 0.00 | 78 | 1015.8 |
| 20260506175332 | 16 | 13 | 6.4 | 9.7 | 0.00 | 0.00 | 0.00 | 77 | 1015.8 |
| 20260506174829 | 16 | 320 | 8.0 | 11.3 | 0.00 | 0.00 | 0.00 | 78 | 1015.5 |
| 20260506174327 | 16 | 9 | 4.8 | 12.9 | 0.00 | 0.00 | 0.00 | 78 | 1015.4 |
| 20260506173824 | 16 | 352 | 11.3 | 12.9 | 0.00 | 0.00 | 0.00 | 77 | 1015.4 |
| 20260506173321 | 16 | 332 | 3.2 | 6.4 | 0.00 | 0.00 | 0.00 | 78 | 1014.8 |
| 20260506172818 | 16 | 342 | 12.9 | 17.7 | 0.00 | 0.00 | 0.00 | 77 | 1015.0 |
| 20260506172314 | 16 | 334 | 12.9 | 22.5 | 0.00 | 0.00 | 0.00 | 76 | 1013.8 |
| 20260506171812 | 17 | 352 | 14.5 | 25.7 | 0.00 | 0.00 | 0.00 | 75 | 1013.1 |
| 20260506171309 | 16 | 26 | 17.7 | 25.7 | 0.00 | 0.00 | 0.00 | 77 | 1013.3 |
| 20260506170807 | 16 | 18 | 12.9 | 17.7 | 0.00 | 0.00 | 0.00 | 77 | 1013.3 |
| 20260506170302 | 16 | 47 | 6.4 | 11.3 | 0.00 | 0.00 | 0.00 | 77 | 1013.8 |
| 20260506165802 | 16 | 90 | 8.0 | 11.3 | 0.00 | 0.00 | 0.00 | 78 | 1015.2 |
| 20260506165259 | 16 | 122 | 8.0 | 24.1 | 0.00 | 0.00 | 0.00 | 77 | 1014.3 |
| 20260506164755 | 16 | 143 | 6.4 | 9.7 | 0.00 | 0.00 | 0.00 | 79 | 1014.4 |
| 20260506164252 | 15 | 40 | 3.2 | 6.4 | 0.00 | 0.00 | 0.00 | 82 | 1015.0 |
| 20260506163749 | 15 | 64 | 6.4 | 11.3 | 0.00 | 0.00 | 0.00 | 82 | 1014.9 |
| 20260506163244 | 14 | 81 | 9.7 | 16.1 | 0.00 | 0.00 | 0.00 | 83 | 1014.7 |
| 20260506162740 | 14 | 39 | 6.4 | 6.4 | 0.00 | 0.00 | 0.00 | 84 | 1015.3 |
| 20260506162238 | 14 | 157 | 0.0 | 6.4 | 0.00 | 0.00 | 0.00 | 84 | 1015.7 |
| 20260506161735 | 14 | 214 | 3.2 | 4.8 | 0.00 | 0.00 | 0.00 | 84 | 1016.4 |
| 20260506161232 | 14 | 208 | 1.6 | 4.8 | 0.00 | 0.00 | 0.00 | 83 | 1016.0 |
| 20260506160730 | 14 | 15 | 11.3 | 12.9 | 0.00 | 0.00 | 0.00 | 83 | 1015.9 |
| 20260506160226 | 14 | 358 | 3.2 | 4.8 | 0.00 | 0.00 | 0.00 | 82 | 1016.5 |
| 20260506155725 | 14 | 29 | 6.4 | 17.7 | 0.00 | 0.00 | 0.00 | 82 | 1015.9 |
| 20260506155221 | 14 | 12 | 12.9 | 16.1 | 0.00 | 0.00 | 0.00 | 82 | 1016.3 |
| 20260506153323 | 14 | 346 | 16.1 | 22.5 | 0.00 | 0.00 | 0.00 | 83 | 1016.5 |
| 20260506152820 | 14 | 356 | 20.9 | 35.4 | 0.00 | 0.00 | 0.00 | 83 | 1016.2 |
| 20260506152317 | 14 | 304 | 9.7 | 24.1 | 0.00 | 0.00 | 0.00 | 83 | 1016.5 |
| 20260506151816 | 14 | 337 | 9.7 | 22.5 | 0.00 | 0.00 | 0.00 | 84 | 1016.4 |
| 20260506151312 | 14 | 10 | 11.3 | 20.9 | 0.00 | 0.00 | 0.00 | 84 | 1016.3 |
| 20260506150809 | 14 | 19 | 17.7 | 25.7 | 0.00 | 0.00 | 0.00 | 84 | 1016.3 |
| 20260506150306 | 15 | 344 | 20.9 | 27.4 | 0.00 | 0.00 | 0.00 | 83 | 1015.9 |
| 20260506145803 | 15 | 342 | 16.1 | 25.7 | 0.00 | 0.00 | 0.00 | 84 | 1016.0 |
| 20260506145259 | 15 | 8 | 19.3 | 24.1 | 0.00 | 0.00 | 0.00 | 84 | 1016.0 |
| 20260506144757 | 15 | 1 | 17.7 | 25.7 | 0.00 | 0.00 | 0.00 | 84 | 1016.1 |
| 20260506144254 | 15 | 351 | 14.5 | 17.7 | 0.00 | 0.00 | 0.00 | 84 | 1015.8 |
| 20260506143751 | 15 | 0 | 14.5 | 20.9 | 0.00 | 0.00 | 0.00 | 84 | 1015.4 |
| 20260506143248 | 15 | 345 | 17.7 | 22.5 | 0.00 | 0.00 | 0.00 | 84 | 1015.4 |
| 20260506142747 | 15 | 6 | 9.7 | 29.0 | 0.00 | 0.00 | 0.00 | 85 | 1015.5 |
| 20260506142245 | 15 | 9 | 14.5 | 22.5 | 0.00 | 0.00 | 0.00 | 87 | 1015.6 |
| 20260506141743 | 15 | 10 | 9.7 | 16.1 | 0.00 | 0.00 | 0.00 | 87 | 1015.3 |
| 20260506141241 | 15 | 15 | 11.3 | 12.9 | 0.00 | 0.00 | 0.00 | 87 | 1015.2 |
| 20260506140738 | 15 | 353 | 17.7 | 27.4 | 0.00 | 0.00 | 0.00 | 87 | 1014.7 |
| 20260506140234 | 15 | 4 | 9.7 | 17.7 | 0.00 | 0.00 | 0.00 | 88 | 1014.4 |
| 20260506135731 | 15 | 1 | 8.0 | 16.1 | 0.00 | 0.00 | 0.00 | 88 | 1014.2 |
| 20260506135228 | 15 | 345 | 14.5 | 17.7 | 0.00 | 0.00 | 0.00 | 89 | 1014.3 |
| 20260506134725 | 15 | 344 | 9.7 | 25.7 | 0.00 | 0.00 | 0.00 | 89 | 1014.1 |
| 20260506134221 | 15 | 333 | 9.7 | 16.1 | 0.00 | 0.00 | 0.00 | 90 | 1014.5 |
| 20260506133718 | 15 | 12 | 9.7 | 17.7 | 0.00 | 0.00 | 0.00 | 90 | 1014.4 |
| 20260506133215 | 15 | 2 | 11.3 | 20.9 | 0.00 | 0.00 | 0.00 | 90 | 1014.3 |
| 20260506132712 | 15 | 349 | 14.5 | 17.7 | 0.00 | 0.00 | 0.00 | 90 | 1014.2 |
| 20260506132209 | 15 | 25 | 4.8 | 16.1 | 0.00 | 0.00 | 0.00 | 91 | 1014.2 |
| 20260506131707 | 15 | 13 | 9.7 | 17.7 | 0.00 | 0.00 | 0.00 | 91 | 1014.0 |
| 20260506131202 | 15 | 343 | 8.0 | 16.1 | 0.00 | 0.00 | 0.00 | 91 | 1013.8 |
| 20260506130659 | 15 | 1 | 12.9 | 24.1 | 0.00 | 0.00 | 0.00 | 91 | 1013.8 |
| 20260506130157 | 15 | 344 | 12.9 | 16.1 | 0.00 | 0.00 | 0.00 | 92 | 1013.9 |
| 20260506125655 | 15 | 14 | 12.9 | 22.5 | 0.00 | 0.00 | 0.00 | 92 | 1013.7 |
| 20260506125152 | 15 | 347 | 19.3 | 25.7 | 0.00 | 0.00 | 0.00 | 92 | 1013.4 |
| 20260506124650 | 16 | 1 | 11.3 | 20.9 | 0.00 | 0.00 | 0.00 | 92 | 1013.6 |
| 20260506124148 | 16 | 354 | 19.3 | 30.6 | 0.00 | 0.00 | 0.00 | 92 | 1013.5 |
| 20260506123645 | 16 | 354 | 19.3 | 25.7 | 0.00 | 0.00 | 0.00 | 92 | 1013.4 |
| 20260506123144 | 16 | 357 | 9.7 | 16.1 | 0.00 | 0.00 | 0.00 | 92 | 1013.2 |
| 20260506122640 | 16 | 353 | 12.9 | 16.1 | 0.00 | 0.00 | 0.00 | 92 | 1013.2 |
| 20260506122138 | 16 | 353 | 14.5 | 25.7 | 0.00 | 0.00 | 0.00 | 92 | 1013.3 |
| 20260506121635 | 16 | 2 | 14.5 | 17.7 | 0.00 | 0.00 | 0.00 | 92 | 1013.1 |
| 20260506121131 | 16 | 358 | 12.9 | 22.5 | 0.00 | 0.00 | 0.00 | 92 | 1013.0 |
| 20260506120629 | 16 | 358 | 12.9 | 14.5 | 0.00 | 0.00 | 0.00 | 93 | 1012.9 |
| 20260506120126 | 16 | 346 | 11.3 | 16.1 | 0.00 | 0.00 | 0.00 | 93 | 1012.8 |
| 20260506115625 | 17 | 9 | 9.7 | 14.5 | 0.00 | 0.00 | 0.00 | 93 | 1012.6 |
| 20260506115123 | 17 | 342 | 9.7 | 14.5 | 0.00 | 0.00 | 0.00 | 93 | 1012.5 |
| 20260506114620 | 17 | 351 | 11.3 | 14.5 | 0.00 | 0.00 | 0.00 | 92 | 1012.6 |
| 20260506114118 | 17 | 330 | 6.4 | 14.5 | 0.00 | 0.00 | 0.00 | 92 | 1012.6 |
| 20260506113616 | 17 | 346 | 6.4 | 9.7 | 0.00 | 0.00 | 0.00 | 92 | 1012.5 |
| 20260506113113 | 17 | 4 | 8.0 | 9.7 | 0.00 | 0.00 | 0.00 | 92 | 1012.5 |
| 20260506112609 | 17 | 4 | 9.7 | 14.5 | 0.00 | 0.00 | 0.00 | 91 | 1012.4 |
| 20260506112107 | 18 | 329 | 3.2 | 9.7 | 0.00 | 0.00 | 0.00 | 91 | 1012.4 |
| 20260506111604 | 18 | 332 | 6.4 | 11.3 | 0.00 | 0.00 | 0.00 | 90 | 1012.0 |
| 20260506111102 | 18 | 311 | 6.4 | 11.3 | 0.00 | 0.00 | 0.00 | 89 | 1012.0 |
| 20260506110559 | 19 | 292 | 3.2 | 9.7 | 0.00 | 0.00 | 0.00 | 87 | 1011.9 |
| 20260506110056 | 20 | 301 | 6.4 | 9.7 | 0.00 | 0.00 | 0.00 | 85 | 1012.0 |
| 20260506105552 | 20 | 281 | 6.4 | 6.4 | 0.00 | 0.00 | 0.00 | 85 | 1011.8 |
| 20260506105049 | 20 | 275 | 4.8 | 12.9 | 0.00 | 0.00 | 0.00 | 84 | 1011.3 |
| 20260506104548 | 20 | 335 | 6.4 | 11.3 | 0.00 | 0.00 | 0.00 | 83 | 1011.4 |
| 20260506104045 | 21 | 2 | 6.4 | 11.3 | 0.00 | 0.00 | 0.00 | 82 | 1011.3 |
| 20260506103542 | 21 | 325 | 6.4 | 12.9 | 0.00 | 0.00 | 0.00 | 81 | 1011.4 |
| 20260506103039 | 21 | 282 | 4.8 | 9.7 | 0.00 | 0.00 | 0.00 | 80 | 1011.1 |
| 20260506102537 | 22 | 294 | 3.2 | 6.4 | 0.00 | 0.00 | 0.00 | 83 | 1011.0 |
| 20260506102034 | 23 | 267 | 4.8 | 6.4 | 0.00 | 0.00 | 0.00 | 88 | 1011.1 |
| 20260506101531 | 23 | 238 | 1.6 | 6.4 | 0.00 | 0.00 | 0.00 | 91 | 1010.8 |
| 20260506101028 | 23 | 206 | 1.6 | 4.8 | 0.00 | 0.00 | 0.00 | 91 | 1010.8 |
| 20260506100526 | 23 | 231 | 1.6 | 3.2 | 0.00 | 0.00 | 0.00 | 91 | 1010.7 |
| 20260506100024 | 23 | 186 | 6.4 | 6.4 | 0.00 | 0.00 | 0.00 | 91 | 1010.5 |
| 20260506095523 | 23 | 237 | 0.0 | 3.2 | 0.00 | 0.00 | 0.00 | 91 | 1010.4 |
| 20260506095018 | 23 | 231 | 0.0 | 0.0 | 0.00 | 0.00 | 0.00 | 91 | 1010.3 |
| 20260506094516 | 23 | 187 | 4.8 | 9.7 | 0.00 | 0.00 | 0.00 | 90 | 1010.2 |
| 20260506094014 | 23 | 200 | 1.6 | 11.3 | 0.00 | 0.00 | 0.00 | 90 | 1010.3 |
| 20260506093512 | 23 | 176 | 6.4 | 6.4 | 0.00 | 0.00 | 0.00 | 90 | 1010.3 |
| 20260506093009 | 23 | 152 | 8.0 | 14.5 | 0.00 | 0.00 | 0.00 | 90 | 1010.4 |
| 20260506092507 | 23 | 200 | 4.8 | 11.3 | 0.00 | 0.00 | 0.00 | 90 | 1010.3 |
| 20260506092003 | 23 | 190 | 6.4 | 9.7 | 0.00 | 0.00 | 0.00 | 89 | 1010.3 |
| 20260506091502 | 23 | 200 | 3.2 | 9.7 | 0.00 | 0.00 | 0.00 | 89 | 1010.2 |
| 20260506090958 | 23 | 144 | 6.4 | 11.3 | 0.00 | 0.00 | 0.00 | 89 | 1010.3 |
| 20260506090457 | 23 | 238 | 9.7 | 12.9 | 0.00 | 0.00 | 0.00 | 89 | 1010.2 |
| 20260506085952 | 23 | 203 | 4.8 | 6.4 | 0.00 | 0.00 | 0.00 | 89 | 1010.3 |
| 20260506085449 | 23 | 159 | 8.0 | 9.7 | 0.00 | 0.00 | 0.00 | 89 | 1010.4 |
| 20260506084946 | 23 | 171 | 6.4 | 14.5 | 0.00 | 0.00 | 0.00 | 89 | 1010.4 |
| 20260506084443 | 23 | 220 | 8.0 | 12.9 | 0.00 | 0.00 | 0.00 | 88 | 1010.4 |
| 20260506083939 | 23 | 199 | 9.7 | 12.9 | 0.00 | 0.00 | 0.00 | 88 | 1010.2 |
| 20260506083437 | 23 | 215 | 6.4 | 9.7 | 0.00 | 0.00 | 0.00 | 88 | 1010.3 |
| 20260506082933 | 23 | 130 | 3.2 | 6.4 | 0.00 | 0.00 | 0.00 | 88 | 1010.3 |
| 20260506082431 | 23 | 250 | 3.2 | 14.5 | 0.00 | 0.00 | 0.00 | 88 | 1010.4 |
| 20260506081926 | 23 | 195 | 14.5 | 17.7 | 0.00 | 0.00 | 0.00 | 88 | 1010.4 |
| 20260506081425 | 23 | 205 | 6.4 | 14.5 | 0.00 | 0.00 | 0.00 | 89 | 1010.4 |
| 20260506080921 | 23 | 215 | 4.8 | 9.7 | 0.00 | 0.00 | 0.00 | 89 | 1010.4 |
| 20260506080418 | 23 | 201 | 3.2 | 9.7 | 0.00 | 0.00 | 0.00 | 89 | 1010.4 |
| 20260506073403 | 23 | 133 | 4.8 | 6.4 | 0.00 | 0.00 | 0.00 | 90 | 1010.3 |
| 20260506072859 | 23 | 193 | 6.4 | 11.3 | 0.00 | 0.00 | 0.00 | 90 | 1010.4 |
| 20260506072357 | 23 | 205 | 9.7 | 11.3 | 0.00 | 0.00 | 0.00 | 90 | 1010.7 |
| 20260506071854 | 23 | 213 | 4.8 | 9.7 | 0.00 | 0.00 | 0.00 | 91 | 1010.7 |
| 20260506071352 | 23 | 215 | 6.4 | 11.3 | 0.00 | 0.00 | 0.00 | 91 | 1010.6 |
| 20260506070849 | 23 | 202 | 6.4 | 9.7 | 0.00 | 0.00 | 0.00 | 91 | 1010.7 |
| 20260506070346 | 23 | 154 | 4.8 | 11.3 | 0.00 | 0.00 | 0.00 | 91 | 1010.7 |
| 20260506062323 | 23 | 111 | 4.8 | 11.3 | 0.00 | 0.00 | 0.00 | 91 | 1010.4 |
| 20260506061819 | 23 | 150 | 8.0 | 12.9 | 0.00 | 0.00 | 0.00 | 91 | 1010.4 |
| 20260506061316 | 23 | 160 | 1.6 | 6.4 | 0.00 | 0.00 | 0.00 | 91 | 1010.3 |
| 20260506060814 | 23 | 211 | 1.6 | 3.2 | 0.00 | 0.00 | 0.00 | 91 | 1010.6 |
| 20260506060312 | 23 | 158 | 4.8 | 12.9 | 0.00 | 0.00 | 0.00 | 91 | 1010.5 |
| 20260506051243 | 23 | 198 | 11.3 | 12.9 | 0.00 | 0.00 | 0.00 | 89 | 1009.9 |
| 20260506050741 | 23 | 179 | 6.4 | 12.9 | 0.00 | 0.00 | 0.00 | 89 | 1010.0 |
| 20260506050238 | 23 | 207 | 4.8 | 11.3 | 0.00 | 0.00 | 0.00 | 89 | 1010.1 |
| 20260506044729 | 24 | 188 | 3.2 | 11.3 | 0.00 | 0.00 | 0.00 | 88 | 1009.7 |
| 20260506044226 | 24 | 187 | 8.0 | 12.9 | 0.00 | 0.00 | 0.00 | 88 | 1009.7 |
| 20260506043724 | 24 | 224 | 8.0 | 14.5 | 0.00 | 0.00 | 0.00 | 88 | 1009.6 |
| 20260506043221 | 24 | 246 | 8.0 | 12.9 | 0.00 | 0.00 | 0.00 | 88 | 1009.6 |
| 20260506042720 | 24 | 231 | 3.2 | 11.3 | 0.00 | 0.00 | 0.00 | 87 | 1009.7 |
| 20260506042218 | 24 | 197 | 9.7 | 12.9 | 0.00 | 0.00 | 0.00 | 87 | 1009.7 |
| 20260506041716 | 24 | 221 | 9.7 | 11.3 | 0.00 | 0.00 | 0.00 | 87 | 1009.7 |
| 20260506041213 | 24 | 227 | 3.2 | 11.3 | 0.00 | 0.00 | 0.00 | 87 | 1009.6 |
| 20260506040710 | 24 | 181 | 3.2 | 9.7 | 0.00 | 0.00 | 0.00 | 87 | 1009.9 |
| 20260506040207 | 24 | 186 | 6.4 | 12.9 | 0.00 | 0.00 | 0.00 | 87 | 1009.7 |
| 20260506035704 | 24 | 188 | 4.8 | 6.4 | 0.00 | 0.00 | 0.00 | 87 | 1009.6 |
| 20260506035201 | 24 | 212 | 8.0 | 9.7 | 0.00 | 0.00 | 0.00 | 86 | 1009.5 |
| 20260506034657 | 24 | 140 | 4.8 | 6.4 | 0.00 | 0.00 | 0.00 | 86 | 1009.5 |
| 20260506034155 | 24 | 191 | 4.8 | 11.3 | 0.00 | 0.00 | 0.00 | 86 | 1009.4 |
| 20260506033652 | 24 | 168 | 3.2 | 11.3 | 0.00 | 0.00 | 0.00 | 85 | 1009.2 |
| 20260506033149 | 24 | 168 | 6.4 | 9.7 | 0.00 | 0.00 | 0.00 | 85 | 1009.4 |
| 20260506032646 | 24 | 156 | 4.8 | 11.3 | 0.00 | 0.00 | 0.00 | 85 | 1009.3 |
| 20260506032143 | 24 | 114 | 3.2 | 11.3 | 0.00 | 0.00 | 0.00 | 85 | 1009.1 |
| 20260506031640 | 25 | 190 | 3.2 | 9.7 | 0.00 | 0.00 | 0.00 | 85 | 1008.7 |
| 20260506031136 | 25 | 200 | 4.8 | 11.3 | 0.00 | 0.00 | 0.00 | 84 | 1008.7 |
| 20260506030636 | 25 | 191 | 4.8 | 12.9 | 0.00 | 0.00 | 0.00 | 84 | 1008.6 |
| 20260506030132 | 25 | 173 | 6.4 | 11.3 | 0.00 | 0.00 | 0.00 | 83 | 1008.4 |
| 20260506025629 | 25 | 226 | 4.8 | 9.7 | 0.00 | 0.00 | 0.00 | 83 | 1008.7 |
| 20260506025125 | 25 | 169 | 6.4 | 12.9 | 0.00 | 0.00 | 0.00 | 83 | 1008.2 |
| 20260506024623 | 25 | 155 | 4.8 | 6.4 | 0.00 | 0.00 | 0.00 | 82 | 1008.2 |
| 20260506024118 | 25 | 196 | 4.8 | 12.9 | 0.00 | 0.00 | 0.00 | 82 | 1008.2 |
| 20260506023615 | 25 | 192 | 9.7 | 12.9 | 0.00 | 0.00 | 0.00 | 81 | 1008.2 |
| 20260506023112 | 25 | 161 | 3.2 | 11.3 | 0.00 | 0.00 | 0.00 | 81 | 1008.0 |
| 20260506022610 | 25 | 176 | 6.4 | 11.3 | 0.00 | 0.00 | 0.00 | 81 | 1008.0 |
| 20260506022107 | 25 | 193 | 4.8 | 14.5 | 0.00 | 0.00 | 0.00 | 80 | 1008.0 |
| 20260506021605 | 25 | 207 | 9.7 | 14.5 | 0.00 | 0.00 | 0.00 | 80 | 1008.0 |
| 20260506021101 | 25 | 206 | 6.4 | 11.3 | 0.00 | 0.00 | 0.00 | 80 | 1007.9 |
| 20260506020559 | 25 | 146 | 3.2 | 6.4 | 0.00 | 0.00 | 0.00 | 80 | 1007.9 |
| 20260506020056 | 25 | 167 | 6.4 | 9.7 | 0.00 | 0.00 | 0.00 | 79 | 1008.0 |
| 20260506015554 | 26 | 181 | 8.0 | 11.3 | 0.00 | 0.00 | 0.00 | 79 | 1007.7 |
| 20260506015050 | 26 | 181 | 6.4 | 11.3 | 0.00 | 0.00 | 0.00 | 79 | 1007.8 |
| 20260506014548 | 26 | 205 | 4.8 | 6.4 | 0.00 | 0.00 | 0.00 | 79 | 1007.8 |
| 20260506014043 | 26 | 192 | 9.7 | 11.3 | 0.00 | 0.00 | 0.00 | 78 | 1007.6 |
| 20260506013542 | 26 | 220 | 4.8 | 12.9 | 0.00 | 0.00 | 0.00 | 78 | 1007.7 |
| 20260506013038 | 26 | 167 | 4.8 | 9.7 | 0.00 | 0.00 | 0.00 | 77 | 1007.6 |
| 20260506012534 | 26 | 178 | 8.0 | 14.5 | 0.00 | 0.00 | 0.00 | 77 | 1007.6 |
| 20260506012031 | 26 | 209 | 6.4 | 12.9 | 0.00 | 0.00 | 0.00 | 77 | 1007.5 |
| 20260506011529 | 26 | 200 | 9.7 | 14.5 | 0.00 | 0.00 | 0.00 | 77 | 1007.4 |
| 20260506011025 | 26 | 153 | 6.4 | 12.9 | 0.00 | 0.00 | 0.00 | 77 | 1007.4 |
| 20260506010525 | 26 | 155 | 4.8 | 9.7 | 0.00 | 0.00 | 0.00 | 76 | 1007.5 |
| 20260506010020 | 26 | 217 | 8.0 | 12.9 | 0.00 | 0.00 | 0.00 | 76 | 1007.4 |
| 20260506005518 | 26 | 222 | 9.7 | 14.5 | 0.00 | 0.00 | 0.00 | 75 | 1007.2 |
| 20260506005013 | 27 | 196 | 8.0 | 12.9 | 0.00 | 0.00 | 0.00 | 75 | 1007.4 |
| 20260506004511 | 27 | 192 | 6.4 | 12.9 | 0.00 | 0.00 | 0.00 | 75 | 1007.3 |
| 20260506004008 | 27 | 177 | 4.8 | 12.9 | 0.00 | 0.00 | 0.00 | 75 | 1007.2 |
| 20260506003504 | 27 | 181 | 16.1 | 22.5 | 0.00 | 0.00 | 0.00 | 74 | 1007.2 |
| 20260506003000 | 27 | 176 | 14.5 | 17.7 | 0.00 | 0.00 | 0.00 | 74 | 1007.4 |
| 20260506002456 | 27 | 179 | 4.8 | 12.9 | 0.00 | 0.00 | 0.00 | 73 | 1007.4 |
| 20260506001952 | 27 | 168 | 8.0 | 12.9 | 0.00 | 0.00 | 0.00 | 72 | 1007.5 |
| 20260506001449 | 27 | 187 | 6.4 | 14.5 | 0.00 | 0.00 | 0.00 | 72 | 1007.5 |
| 20260506000946 | 27 | 195 | 8.0 | 24.1 | 0.00 | 0.00 | 0.00 | 71 | 1007.4 |
| 20260506000445 | 27 | 199 | 6.4 | 16.1 | 0.00 | 0.00 | 0.00 | 71 | 1007.4 |
| 20260505235940 | 27 | 191 | 12.9 | 17.7 | 0.00 | 0.00 | 0.00 | 71 | 1007.3 |
| 20260505235438 | 28 | 224 | 8.0 | 16.1 | 0.00 | 0.00 | 0.00 | 72 | 1007.4 |
| 20260505234935 | 28 | 218 | 11.3 | 17.7 | 0.00 | 0.00 | 0.00 | 71 | 1007.4 |
| 20260505234432 | 28 | 206 | 16.1 | 20.9 | 0.00 | 0.00 | 0.00 | 70 | 1007.2 |
| 20260505233929 | 28 | 147 | 12.9 | 16.1 | 0.00 | 0.00 | 0.00 | 70 | 1007.2 |
| 20260505233427 | 28 | 167 | 6.4 | 9.7 | 0.00 | 0.00 | 0.00 | 71 | 1007.2 |
| 20260505232924 | 28 | 208 | 9.7 | 16.1 | 0.00 | 0.00 | 0.00 | 70 | 1007.2 |
| 20260505232422 | 28 | 207 | 9.7 | 20.9 | 0.00 | 0.00 | 0.00 | 70 | 1007.2 |
| 20260505231918 | 28 | 177 | 9.7 | 17.7 | 0.00 | 0.00 | 0.00 | 70 | 1007.1 |
| 20260505231416 | 28 | 234 | 14.5 | 17.7 | 0.00 | 0.00 | 0.00 | 69 | 1007.1 |
| 20260505230914 | 28 | 189 | 9.7 | 27.4 | 0.00 | 0.00 | 0.00 | 69 | 1007.0 |
| 20260505230412 | 28 | 193 | 12.9 | 24.1 | 0.00 | 0.00 | 0.00 | 69 | 1006.9 |
| 20260505225907 | 28 | 127 | 4.8 | 12.9 | 0.00 | 0.00 | 0.00 | 69 | 1007.1 |
| 20260505225405 | 28 | 170 | 8.0 | 22.5 | 0.00 | 0.00 | 0.00 | 68 | 1007.1 |
| 20260505224900 | 28 | 180 | 24.1 | 30.6 | 0.00 | 0.00 | 0.00 | 69 | 1007.1 |
| 20260505224358 | 28 | 205 | 8.0 | 27.4 | 0.00 | 0.00 | 0.00 | 69 | 1007.0 |
| 20260505223854 | 28 | 177 | 9.7 | 14.5 | 0.00 | 0.00 | 0.00 | 70 | 1007.0 |
| 20260505223351 | 28 | 178 | 14.5 | 17.7 | 0.00 | 0.00 | 0.00 | 69 | 1006.8 |
| 20260505222847 | 28 | 203 | 14.5 | 25.7 | 0.00 | 0.00 | 0.00 | 68 | 1006.8 |
| 20260505222344 | 28 | 174 | 9.7 | 22.5 | 0.00 | 0.00 | 0.00 | 69 | 1006.7 |
| 20260505221841 | 28 | 191 | 14.5 | 27.4 | 0.00 | 0.00 | 0.00 | 68 | 1006.8 |
| 20260505221338 | 28 | 202 | 17.7 | 27.4 | 0.00 | 0.00 | 0.00 | 68 | 1007.0 |
| 20260505220835 | 28 | 198 | 14.5 | 24.1 | 0.00 | 0.00 | 0.00 | 69 | 1007.1 |
| 20260505220331 | 28 | 194 | 9.7 | 24.1 | 0.00 | 0.00 | 0.00 | 70 | 1007.1 |
| 20260505215830 | 28 | 242 | 6.4 | 17.7 | 0.00 | 0.00 | 0.00 | 69 | 1007.2 |
| 20260505215327 | 28 | 174 | 19.3 | 24.1 | 0.00 | 0.00 | 0.00 | 68 | 1007.0 |
| 20260505214825 | 28 | 207 | 22.5 | 27.4 | 0.00 | 0.00 | 0.00 | 67 | 1007.3 |
| 20260505214322 | 28 | 196 | 6.4 | 16.1 | 0.00 | 0.00 | 0.00 | 70 | 1007.2 |
| 20260505213819 | 28 | 212 | 16.1 | 20.9 | 0.00 | 0.00 | 0.00 | 68 | 1007.4 |
| 20260505213317 | 28 | 159 | 12.9 | 16.1 | 0.00 | 0.00 | 0.00 | 68 | 1007.5 |
| 20260505212813 | 28 | 206 | 4.8 | 16.1 | 0.00 | 0.00 | 0.00 | 69 | 1007.6 |
| 20260505212310 | 28 | 150 | 12.9 | 14.5 | 0.00 | 0.00 | 0.00 | 67 | 1007.4 |
| 20260505211806 | 28 | 201 | 6.4 | 12.9 | 0.00 | 0.00 | 0.00 | 69 | 1007.6 |
| 20260505211304 | 28 | 131 | 9.7 | 22.5 | 0.00 | 0.00 | 0.00 | 68 | 1007.6 |
| 20260505210800 | 28 | 191 | 11.3 | 17.7 | 0.00 | 0.00 | 0.00 | 69 | 1007.7 |
| 20260505210257 | 28 | 226 | 14.5 | 17.7 | 0.00 | 0.00 | 0.00 | 68 | 1007.8 |
| 20260505205754 | 28 | 183 | 14.5 | 25.7 | 0.00 | 0.00 | 0.00 | 68 | 1008.0 |
| 20260505205253 | 28 | 249 | 9.7 | 25.7 | 0.00 | 0.00 | 0.00 | 69 | 1008.1 |
| 20260505204749 | 28 | 227 | 6.4 | 17.7 | 0.00 | 0.00 | 0.00 | 69 | 1008.0 |
| 20260505204247 | 28 | 203 | 8.0 | 17.7 | 0.00 | 0.00 | 0.00 | 69 | 1008.2 |
| 20260505203744 | 28 | 189 | 17.7 | 20.9 | 0.00 | 0.00 | 0.00 | 68 | 1008.1 |
| 20260505203241 | 29 | 199 | 14.5 | 17.7 | 0.00 | 0.00 | 0.00 | 67 | 1008.2 |
| 20260505202736 | 28 | 205 | 6.4 | 14.5 | 0.00 | 0.00 | 0.00 | 68 | 1008.1 |
| 20260505202233 | 28 | 227 | 8.0 | 25.7 | 0.00 | 0.00 | 0.00 | 69 | 1008.1 |
| 20260505201729 | 28 | 206 | 17.7 | 24.1 | 0.00 | 0.00 | 0.00 | 67 | 1008.1 |
| 20260505201227 | 28 | 208 | 11.3 | 17.7 | 0.00 | 0.00 | 0.00 | 69 | 1008.1 |
| 20260505200725 | 28 | 218 | 14.5 | 27.4 | 0.00 | 0.00 | 0.00 | 70 | 1008.0 |
| 20260505200222 | 28 | 221 | 14.5 | 27.4 | 0.00 | 0.00 | 0.00 | 67 | 1008.2 |
| 20260505195717 | 28 | 94 | 9.7 | 17.7 | 0.00 | 0.00 | 0.00 | 70 | 1008.1 |
| 20260505195215 | 28 | 174 | 20.9 | 27.4 | 0.00 | 0.00 | 0.00 | 67 | 1008.3 |
| 20260505194712 | 28 | 189 | 17.7 | 24.1 | 0.00 | 0.00 | 0.00 | 68 | 1008.2 |
| 20260505194209 | 28 | 200 | 6.4 | 14.5 | 0.00 | 0.00 | 0.00 | 68 | 1008.4 |
| 20260505193704 | 28 | 217 | 11.3 | 24.1 | 0.00 | 0.00 | 0.00 | 67 | 1008.4 |
| 20260505193202 | 27 | 174 | 4.8 | 22.5 | 0.00 | 0.00 | 0.00 | 70 | 1008.5 |
| 20260505192700 | 28 | 234 | 8.0 | 24.1 | 0.00 | 0.00 | 0.00 | 69 | 1008.5 |
| 20260505192158 | 27 | 161 | 9.7 | 14.5 | 0.00 | 0.00 | 0.00 | 70 | 1008.5 |
| 20260505191656 | 28 | 210 | 19.3 | 27.4 | 0.00 | 0.00 | 0.00 | 68 | 1008.5 |
| 20260505191154 | 28 | 213 | 11.3 | 24.1 | 0.00 | 0.00 | 0.00 | 69 | 1008.5 |
| 20260505190649 | 28 | 182 | 11.3 | 24.1 | 0.00 | 0.00 | 0.00 | 69 | 1008.6 |
| 20260505190149 | 27 | 153 | 19.3 | 25.7 | 0.00 | 0.00 | 0.00 | 70 | 1008.4 |
| 20260505185646 | 27 | 157 | 9.7 | 29.0 | 0.00 | 0.00 | 0.00 | 72 | 1008.5 |
| 20260505185143 | 27 | 176 | 20.9 | 29.0 | 0.00 | 0.00 | 0.00 | 70 | 1008.4 |
| 20260505184639 | 27 | 213 | 12.9 | 27.4 | 0.00 | 0.00 | 0.00 | 71 | 1008.6 |
| 20260505184136 | 27 | 152 | 24.1 | 29.0 | 0.00 | 0.00 | 0.00 | 70 | 1008.6 |
| 20260505183633 | 27 | 221 | 11.3 | 24.1 | 0.00 | 0.00 | 0.00 | 71 | 1008.7 |
| 20260505183131 | 27 | 108 | 8.0 | 27.4 | 0.00 | 0.00 | 0.00 | 70 | 1008.8 |
| 20260505182627 | 27 | 177 | 14.5 | 22.5 | 0.00 | 0.00 | 0.00 | 70 | 1009.1 |
| 20260505182124 | 28 | 183 | 17.7 | 24.1 | 0.00 | 0.00 | 0.00 | 68 | 1008.9 |
| 20260505181620 | 27 | 184 | 6.4 | 22.5 | 0.00 | 0.00 | 0.00 | 71 | 1009.0 |
| 20260505181118 | 27 | 207 | 9.7 | 25.7 | 0.00 | 0.00 | 0.00 | 70 | 1009.2 |